Time,TemperatureF,DewpointF,PressureIn,WindDirection,WindDirectionDegrees,WindSpeedMPH,WindSpeedGustMPH,Humidity,HourlyPrecipIn,Conditions,Clouds,dailyrainin,SoftwareType,DateUTC
2013-05-05 00:00:00,51.1,40.9,30.08,NNE,22,2.0,5.0,68,0.00,CLR,,0.00,WeatherDisplay:10.37,2013-05-05 04:00:00,
2013-05-05 00:01:00,51.1,40.9,30.08,NNE,22,2.9,2.9,68,0.00,CLR,,0.00,WeatherDisplay:10.37,2013-05-05 04:01:00,
2013-05-05 00:06:00,51.1,40.9,30.08,NNE,22,1.7,1.8,68,0.00,CLR,,0.00,WeatherDisplay:10.37,2013-05-05 04:06:00,
2013-05-05 00:11:00,51.1,40.9,30.08,NNE,22,0.0,0.0,68,0.00,CLR,,0.00,WeatherDisplay:10.37,2013-05-05 04:11:00,
2013-05-05 00:16:00,51.1,41.3,30.08,NNE,22,4.6,4.6,69,0.00,CLR,,0.00,WeatherDisplay:10.37,2013-05-05 04:16:00,
2013-05-05 00:21:00,51.1,40.9,30.08,NNE,22,0.0,0.0,68,0.00,CLR,,0.00,WeatherDisplay:10.37,2013-05-05 04:21:00,
2013-05-05 00:26:00,51.1,40.9,30.08,NNE,22,0.0,0.0,68,0.00,CLR,,0.00,WeatherDisplay:10.37,2013-05-05 04:26:00,
2013-05-05 00:31:00,51.1,40.9,30.08,NNE,22,0.0,0.3,68,0.00,CLR,,0.00,WeatherDisplay:10.37,2013-05-05 04:31:00,
2013-05-05 00:36:00,51.3,41.1,30.08,NNE,22,1.1,1.1,68,0.00,CLR,,0.00,WeatherDisplay:10.37,2013-05-05 04:36:00,
2013-05-05 00:41:00,51.3,41.4,30.08,NNE,22,4.6,4.6,69,0.00,CLR,,0.00,WeatherDisplay:10.37,2013-05-05 04:41:00,
2013-05-05 00:46:00,51.4,41.6,30.08,NNE,22,0.0,0.0,69,0.00,CLR,,0.00,WeatherDisplay:10.37,2013-05-05 04:46:00,
2013-05-05 00:51:00,51.4,41.6,30.08,NNE,22,0.0,0.0,69,0.00,CLR,,0.00,WeatherDisplay:10.37,2013-05-05 04:51:00,
2013-05-05 00:56:00,51.4,41.6,30.07,NNE,22,4.6,4.8,69,0.00,CLR,,0.00,WeatherDisplay:10.37,2013-05-05 04:56:00,
2013-05-05 01:01:00,51.4,42.0,30.07,NNE,22,4.6,5.0,70,0.00,CLR,,0.00,WeatherDisplay:10.37,2013-05-05 05:01:00,
2013-05-05 01:07:00,51.4,42.0,30.07,NNE,22,4.6,5.0,70,0.00,CLR,,0.00,WeatherDisplay:10.37,2013-05-05 05:07:00,
2013-05-05 01:12:00,51.6,42.2,30.07,NNE,22,0.0,0.0,70,0.00,CLR,,0.00,WeatherDisplay:10.37,2013-05-05 05:12:00,
2013-05-05 01:17:00,51.6,42.2,30.06,NNE,22,0.0,0.0,70,0.00,CLR,,0.00,WeatherDisplay:10.37,2013-05-05 05:17:00,
2013-05-05 01:22:00,51.6,42.2,30.06,NNE,22,0.0,0.0,70,0.00,CLR,,0.00,WeatherDisplay:10.37,2013-05-05 05:22:00,
2013-05-05 01:27:00,51.6,42.5,30.06,NNE,22,2.2,0.0,71,0.00,CLR,,0.00,WeatherDisplay:10.37,2013-05-05 05:27:00,
2013-05-05 01:32:00,51.6,42.2,30.06,NNE,22,5.8,5.9,70,0.00,CLR,,0.00,WeatherDisplay:10.37,2013-05-05 05:32:00,
2013-05-05 01:37:00,51.6,42.2,30.06,NNE,22,0.0,0.0,70,0.00,CLR,,0.00,WeatherDisplay:10.37,2013-05-05 05:37:00,
2013-05-05 01:42:00,51.6,42.5,30.06,NNE,22,0.0,0.6,71,0.00,CLR,,0.00,WeatherDisplay:10.37,2013-05-05 05:42:00,
2013-05-05 01:47:00,51.6,42.5,30.06,NNE,22,0.0,0.0,71,0.00,CLR,,0.00,WeatherDisplay:10.37,2013-05-05 05:47:00,
2013-05-05 01:52:00,51.6,42.5,30.06,NNE,22,6.9,7.3,71,0.00,CLR,,0.00,WeatherDisplay:10.37,2013-05-05 05:52:00,
2013-05-05 01:57:00,51.6,42.5,30.06,NNE,22,0.0,0.0,71,0.00,CLR,,0.00,WeatherDisplay:10.37,2013-05-05 05:57:00,
2013-05-05 02:02:00,51.6,42.5,30.06,NNE,22,9.2,9.2,71,0.00,CLR,,0.00,WeatherDisplay:10.37,2013-05-05 06:02:00,
2013-05-05 02:07:00,51.6,42.5,30.05,NNE,22,8.1,8.1,71,0.00,CLR,,0.00,WeatherDisplay:10.37,2013-05-05 06:07:00,
2013-05-05 02:12:00,51.6,42.2,30.05,NNE,22,3.5,3.5,70,0.00,CLR,,0.00,WeatherDisplay:10.37,2013-05-05 06:12:00,
2013-05-05 02:17:00,51.6,42.2,30.05,NNE,22,2.3,0.0,70,0.00,CLR,,0.00,WeatherDisplay:10.37,2013-05-05 06:17:00,
2013-05-05 02:22:00,51.6,42.2,30.04,NNE,22,1.1,1.2,70,0.00,CLR,,0.00,WeatherDisplay:10.37,2013-05-05 06:22:00,
2013-05-05 02:27:00,51.6,42.2,30.04,NNE,22,0.0,0.0,70,0.00,CLR,,0.00,WeatherDisplay:10.37,2013-05-05 06:27:00,
2013-05-05 02:32:00,51.4,42.0,30.04,NNE,22,1.1,1.5,70,0.00,CLR,,0.00,WeatherDisplay:10.37,2013-05-05 06:32:00,
2013-05-05 02:37:00,51.3,41.8,30.03,NNE,22,7.2,7.5,70,0.00,CLR,,0.00,WeatherDisplay:10.37,2013-05-05 06:37:00,
2013-05-05 02:42:00,51.1,41.6,30.03,NNE,22,4.6,5.0,70,0.00,CLR,,0.00,WeatherDisplay:10.37,2013-05-05 06:42:00,
2013-05-05 02:47:00,50.9,41.1,30.03,NNE,22,4.6,4.6,69,0.00,CLR,,0.00,WeatherDisplay:10.37,2013-05-05 06:47:00,
2013-05-05 02:52:00,50.7,40.9,30.03,NNE,22,4.6,0.0,69,0.00,CLR,,0.00,WeatherDisplay:10.37,2013-05-05 06:52:00,
2013-05-05 02:57:00,50.5,40.7,30.03,NNE,22,0.0,0.0,69,0.00,CLR,,0.00,WeatherDisplay:10.37,2013-05-05 06:57:00,
2013-05-05 03:02:00,50.4,40.2,30.03,NNE,22,0.0,0.0,68,0.00,CLR,,0.00,WeatherDisplay:10.37,2013-05-05 07:02:00,
2013-05-05 03:07:00,50.2,40.0,30.03,NNE,22,1.7,1.8,68,0.00,CLR,,0.00,WeatherDisplay:10.37,2013-05-05 07:07:00,
2013-05-05 03:12:00,50.2,40.0,30.03,NNE,22,9.2,9.2,68,0.00,CLR,,0.00,WeatherDisplay:10.37,2013-05-05 07:12:00,
2013-05-05 03:17:00,49.8,39.7,30.03,NNE,22,3.5,3.9,68,0.00,CLR,,0.00,WeatherDisplay:10.37,2013-05-05 07:17:00,
2013-05-05 03:22:00,49.8,39.7,30.02,NNE,22,3.5,4.0,68,0.00,CLR,,0.00,WeatherDisplay:10.37,2013-05-05 07:22:00,
2013-05-05 03:27:00,49.6,39.5,30.03,NNE,22,0.0,0.0,68,0.00,CLR,,0.00,WeatherDisplay:10.37,2013-05-05 07:27:00,
2013-05-05 03:32:00,49.6,39.1,30.02,NNE,22,4.6,4.6,67,0.00,CLR,,0.00,WeatherDisplay:10.37,2013-05-05 07:32:00,
2013-05-05 03:37:00,49.6,39.1,30.02,NNE,22,3.5,3.5,67,0.00,CLR,,0.00,WeatherDisplay:10.37,2013-05-05 07:37:00,
2013-05-05 03:42:00,49.5,39.0,30.02,NNE,22,0.0,0.0,67,0.00,CLR,,0.00,WeatherDisplay:10.37,2013-05-05 07:42:00,
2013-05-05 03:47:00,49.3,38.4,30.03,NNE,22,3.5,3.5,66,0.00,CLR,,0.00,WeatherDisplay:10.37,2013-05-05 07:47:00,
2013-05-05 03:52:00,49.3,38.4,30.03,NNE,22,0.0,0.0,66,0.00,CLR,,0.00,WeatherDisplay:10.37,2013-05-05 07:52:00,
2013-05-05 03:57:00,49.3,38.0,30.03,NNE,22,3.5,3.5,65,0.00,CLR,,0.00,WeatherDisplay:10.37,2013-05-05 07:57:00,
2013-05-05 04:02:00,49.3,38.0,30.03,NNE,22,1.1,1.8,65,0.00,CLR,,0.00,WeatherDisplay:10.37,2013-05-05 08:02:00,
2013-05-05 04:07:00,49.3,37.6,30.03,NNE,22,0.0,0.0,64,0.00,CLR,,0.00,WeatherDisplay:10.37,2013-05-05 08:07:00,
2013-05-05 04:12:00,49.3,37.6,30.03,NNE,22,3.5,3.5,64,0.00,CLR,,0.00,WeatherDisplay:10.37,2013-05-05 08:12:00,
2013-05-05 04:17:00,49.3,37.2,30.02,NNE,22,0.0,0.0,63,0.00,CLR,,0.00,WeatherDisplay:10.37,2013-05-05 08:17:00,
2013-05-05 04:22:00,49.3,37.2,30.02,NNE,22,2.3,2.8,63,0.00,CLR,,0.00,WeatherDisplay:10.37,2013-05-05 08:22:00,
2013-05-05 04:27:00,49.3,36.4,30.02,NNE,22,2.3,2.3,61,0.00,CLR,,0.00,WeatherDisplay:10.37,2013-05-05 08:27:00,
2013-05-05 04:32:00,49.1,36.2,30.02,NNE,22,0.0,0.0,61,0.00,CLR,,0.00,WeatherDisplay:10.37,2013-05-05 08:32:00,
2013-05-05 04:37:00,49.1,35.8,30.02,NNE,22,0.0,0.0,60,0.00,CLR,,0.00,WeatherDisplay:10.37,2013-05-05 08:37:00,
2013-05-05 04:42:00,49.1,35.8,30.01,NNE,22,1.7,1.7,60,0.00,CLR,,0.00,WeatherDisplay:10.37,2013-05-05 08:42:00,
2013-05-05 04:47:00,49.1,35.4,30.01,NNE,22,0.0,0.0,59,0.00,CLR,,0.00,WeatherDisplay:10.37,2013-05-05 08:47:00,
2013-05-05 04:52:00,48.9,35.2,30.01,NNE,22,0.0,0.0,59,0.00,CLR,,0.00,WeatherDisplay:10.37,2013-05-05 08:52:00,
2013-05-05 04:57:00,48.9,35.2,30.01,NNE,22,1.1,1.1,59,0.00,CLR,,0.00,WeatherDisplay:10.37,2013-05-05 08:57:00,
2013-05-05 05:02:00,48.7,35.0,30.00,NNE,22,1.1,1.1,59,0.00,CLR,,0.00,WeatherDisplay:10.37,2013-05-05 09:02:00,
2013-05-05 05:07:00,48.7,35.0,30.00,NNE,22,0.0,0.0,59,0.00,CLR,,0.00,WeatherDisplay:10.37,2013-05-05 09:07:00,
2013-05-05 05:12:00,48.7,35.5,30.00,NNE,22,4.6,4.6,60,0.00,CLR,,0.00,WeatherDisplay:10.37,2013-05-05 09:12:00,
2013-05-05 05:17:00,48.6,35.3,30.00,NNE,22,0.0,0.0,60,0.00,CLR,,0.00,WeatherDisplay:10.37,2013-05-05 09:17:00,
2013-05-05 05:22:00,48.4,35.5,29.99,NNE,22,2.4,0.0,61,0.00,CLR,,0.00,WeatherDisplay:10.37,2013-05-05 09:22:00,
2013-05-05 05:27:00,48.4,35.5,29.99,NNE,22,2.3,2.3,61,0.00,CLR,,0.00,WeatherDisplay:10.37,2013-05-05 09:27:00,
2013-05-05 05:32:00,48.2,35.8,29.99,NNE,22,0.0,0.0,62,0.00,CLR,,0.00,WeatherDisplay:10.37,2013-05-05 09:32:00,
2013-05-05 05:37:00,48.0,35.6,29.99,NNE,22,0.0,0.0,62,0.00,CLR,,0.00,WeatherDisplay:10.37,2013-05-05 09:37:00,
2013-05-05 05:42:00,48.0,35.6,30.00,NNE,22,2.3,2.3,62,0.00,CLR,,0.00,WeatherDisplay:10.37,2013-05-05 09:42:00,
2013-05-05 05:47:00,48.0,35.6,30.00,NNE,22,0.0,0.0,62,0.00,CLR,,0.00,WeatherDisplay:10.37,2013-05-05 09:47:00,
2013-05-05 05:52:00,47.8,35.4,29.99,NNE,22,0.0,0.0,62,0.00,CLR,,0.00,WeatherDisplay:10.37,2013-05-05 09:52:00,
2013-05-05 05:57:00,47.8,35.4,29.99,NNE,22,2.4,2.4,62,0.00,CLR,,0.00,WeatherDisplay:10.37,2013-05-05 09:57:00,
2013-05-05 06:02:00,47.7,34.9,29.99,NNE,22,0.0,0.0,61,0.00,CLR,,0.00,WeatherDisplay:10.37,2013-05-05 10:02:00,
2013-05-05 06:07:00,47.5,34.3,30.00,NNE,22,0.0,0.0,60,0.00,CLR,,0.00,WeatherDisplay:10.37,2013-05-05 10:07:00,
2013-05-05 06:12:00,47.5,34.3,30.00,NNE,22,0.0,0.0,60,0.00,CLR,,0.00,WeatherDisplay:10.37,2013-05-05 10:12:00,
2013-05-05 06:17:00,47.5,33.9,30.00,NNE,22,0.0,0.0,59,0.00,CLR,,0.00,WeatherDisplay:10.37,2013-05-05 10:17:00,
2013-05-05 06:22:00,47.3,33.7,30.00,NNE,22,0.0,0.0,59,0.00,CLR,,0.00,WeatherDisplay:10.37,2013-05-05 10:22:00,
2013-05-05 06:27:00,47.3,33.7,30.00,NNE,22,2.3,2.8,59,0.00,CLR,,0.00,WeatherDisplay:10.37,2013-05-05 10:27:00,
2013-05-05 06:32:00,47.3,32.8,30.00,NNE,22,4.6,4.8,57,0.00,CLR,,0.00,WeatherDisplay:10.37,2013-05-05 10:32:00,
2013-05-05 06:37:00,47.3,32.8,30.00,NNE,22,0.0,0.0,57,0.00,CLR,,0.00,WeatherDisplay:10.37,2013-05-05 10:37:00,
2013-05-05 06:42:00,47.3,32.4,30.00,NNE,22,0.0,0.0,56,0.00,CLR,,0.00,WeatherDisplay:10.37,2013-05-05 10:42:00,
2013-05-05 06:47:00,47.5,32.1,30.00,NNE,22,0.0,0.0,55,0.00,CLR,,0.00,WeatherDisplay:10.37,2013-05-05 10:47:00,
2013-05-05 06:52:00,47.7,32.3,30.00,NNE,22,3.5,3.5,55,0.00,CLR,,0.00,WeatherDisplay:10.37,2013-05-05 10:52:00,
2013-05-05 06:57:00,47.8,32.4,30.01,NNE,22,0.0,0.0,55,0.00,CLR,,0.00,WeatherDisplay:10.37,2013-05-05 10:57:00,
2013-05-05 07:02:00,47.8,32.0,30.01,NNE,22,3.5,3.8,54,0.00,CLR,,0.00,WeatherDisplay:10.37,2013-05-05 11:02:00,
2013-05-05 07:07:00,48.0,31.2,30.01,NNE,22,1.1,1.1,52,0.00,CLR,,0.00,WeatherDisplay:10.37,2013-05-05 11:07:00,
2013-05-05 07:12:00,48.2,30.9,30.01,NNE,22,4.6,4.6,51,0.00,CLR,,0.00,WeatherDisplay:10.37,2013-05-05 11:12:00,
2013-05-05 07:17:00,48.6,29.7,30.01,NNE,22,1.1,1.8,48,0.00,CLR,,0.00,WeatherDisplay:10.37,2013-05-05 11:17:00,
2013-05-05 07:22:00,48.6,29.7,30.01,NNE,22,3.5,3.5,48,0.00,CLR,,0.00,WeatherDisplay:10.37,2013-05-05 11:22:00,
2013-05-05 07:27:00,48.6,29.2,30.01,NNE,22,3.9,3.9,47,0.00,CLR,,0.00,WeatherDisplay:10.37,2013-05-05 11:27:00,
2013-05-05 07:32:00,48.6,29.2,30.02,NNE,22,0.0,0.0,47,0.00,CLR,,0.00,WeatherDisplay:10.37,2013-05-05 11:32:00,
2013-05-05 07:37:00,48.7,28.3,30.02,NNE,22,2.3,2.3,45,0.00,CLR,,0.00,WeatherDisplay:10.37,2013-05-05 11:37:00,
2013-05-05 07:42:00,48.7,28.3,30.01,NNE,22,4.6,4.6,45,0.00,CLR,,0.00,WeatherDisplay:10.37,2013-05-05 11:42:00,
2013-05-05 07:47:00,48.7,28.3,30.02,NNE,22,0.0,0.0,45,0.00,CLR,,0.00,WeatherDisplay:10.37,2013-05-05 11:47:00,
2013-05-05 07:52:00,48.7,27.2,30.01,NNE,22,0.0,0.0,43,0.00,CLR,,0.00,WeatherDisplay:10.37,2013-05-05 11:52:00,
2013-05-05 07:57:00,48.9,27.4,30.02,NNE,22,5.8,5.8,43,0.00,CLR,,0.00,WeatherDisplay:10.37,2013-05-05 11:57:00,
2013-05-05 08:02:00,49.1,26.4,30.02,NNE,22,0.0,0.0,41,0.00,CLR,,0.00,WeatherDisplay:10.37,2013-05-05 12:02:00,
2013-05-05 08:07:00,49.1,25.8,30.02,NNE,22,8.7,8.7,40,0.00,CLR,,0.00,WeatherDisplay:10.37,2013-05-05 12:07:00,
2013-05-05 08:12:00,49.1,25.2,30.02,NNE,22,4.6,4.6,39,0.00,CLR,,0.00,WeatherDisplay:10.37,2013-05-05 12:12:00,
2013-05-05 08:17:00,49.3,25.3,30.02,NNE,22,3.5,3.5,39,0.00,CLR,,0.00,WeatherDisplay:10.37,2013-05-05 12:17:00,
2013-05-05 08:22:00,49.5,25.5,30.02,NNE,22,1.1,1.2,39,0.00,CLR,,0.00,WeatherDisplay:10.37,2013-05-05 12:22:00,
2013-05-05 08:27:00,49.6,25.7,30.01,NNE,22,1.1,0.0,39,0.00,CLR,,0.00,WeatherDisplay:10.37,2013-05-05 12:27:00,
2013-05-05 08:32:00,49.8,25.8,30.01,NNE,22,0.0,0.0,39,0.00,CLR,,0.00,WeatherDisplay:10.37,2013-05-05 12:32:00,
2013-05-05 08:37:00,49.8,25.2,30.02,NNE,22,1.1,1.5,38,0.00,CLR,,0.00,WeatherDisplay:10.37,2013-05-05 12:37:00,
2013-05-05 08:42:00,49.8,25.8,30.02,NNE,22,0.0,0.0,39,0.00,CLR,,0.00,WeatherDisplay:10.37,2013-05-05 12:42:00,
2013-05-05 08:47:00,50.2,26.1,30.02,NNE,22,2.3,2.3,39,0.00,CLR,,0.00,WeatherDisplay:10.37,2013-05-05 12:47:00,
2013-05-05 08:52:00,49.8,25.2,30.02,NNE,22,0.0,0.0,38,0.00,CLR,,0.00,WeatherDisplay:10.37,2013-05-05 12:52:00,
2013-05-05 08:57:00,49.8,25.2,30.01,NNE,22,0.0,0.0,38,0.00,CLR,,0.00,WeatherDisplay:10.37,2013-05-05 12:57:00,
2013-05-05 09:02:00,49.8,25.2,30.01,NNE,22,0.0,0.0,38,0.00,CLR,,0.00,WeatherDisplay:10.37,2013-05-05 13:02:00,
2013-05-05 09:07:00,49.8,25.8,30.01,NNE,22,0.0,0.0,39,0.00,CLR,,0.00,WeatherDisplay:10.37,2013-05-05 13:07:00,
2013-05-05 09:12:00,50.2,25.5,30.01,NNE,22,0.0,0.0,38,0.00,CLR,,0.00,WeatherDisplay:10.37,2013-05-05 13:12:00,
2013-05-05 09:17:00,50.2,25.5,30.01,NNE,22,1.1,1.3,38,0.00,CLR,,0.00,WeatherDisplay:10.37,2013-05-05 13:17:00,
2013-05-05 09:22:00,50.4,25.7,30.01,NNE,22,0.0,0.0,38,0.00,CLR,,0.00,WeatherDisplay:10.37,2013-05-05 13:22:00,
2013-05-05 09:27:00,50.5,25.2,30.01,NNE,22,0.0,0.0,37,0.00,CLR,,0.00,WeatherDisplay:10.37,2013-05-05 13:27:00,
2013-05-05 09:32:00,50.7,25.4,30.02,NNE,22,6.9,7.3,37,0.00,CLR,,0.00,WeatherDisplay:10.37,2013-05-05 13:32:00,
2013-05-05 09:37:00,50.9,25.5,30.01,NNE,22,4.6,4.6,37,0.00,CLR,,0.00,WeatherDisplay:10.37,2013-05-05 13:37:00,
2013-05-05 09:42:00,51.3,25.2,30.01,NNE,22,0.0,0.0,36,0.00,CLR,,0.00,WeatherDisplay:10.37,2013-05-05 13:42:00,
2013-05-05 09:47:00,51.6,26.2,30.01,NNE,22,8.1,8.1,37,0.00,CLR,,0.00,WeatherDisplay:10.37,2013-05-05 13:47:00,
2013-05-05 09:52:00,52.2,27.3,30.01,NNE,22,0.0,0.0,38,0.00,CLR,,0.00,WeatherDisplay:10.37,2013-05-05 13:52:00,
2013-05-05 09:57:00,52.3,26.1,30.01,NNE,22,1.1,0.0,36,0.00,CLR,,0.00,WeatherDisplay:10.37,2013-05-05 13:57:00,
2013-05-05 10:02:00,53.4,26.4,30.00,NNE,22,7.0,7.0,35,0.00,CLR,,0.00,WeatherDisplay:10.37,2013-05-05 14:02:00,
2013-05-05 10:07:00,53.4,26.4,30.00,NNE,22,0.0,0.0,35,0.00,CLR,,0.00,WeatherDisplay:10.37,2013-05-05 14:07:00,
2013-05-05 10:12:00,53.8,26.7,30.00,NNE,22,1.1,1.1,35,0.00,CLR,,0.00,WeatherDisplay:10.37,2013-05-05 14:12:00,
2013-05-05 10:17:00,54.1,27.1,30.00,NNE,22,1.1,1.8,35,0.00,CLR,,0.00,WeatherDisplay:10.37,2013-05-05 14:17:00,
2013-05-05 10:22:00,54.1,27.7,30.00,NNE,22,4.6,4.6,36,0.00,CLR,,0.00,WeatherDisplay:10.37,2013-05-05 14:22:00,
2013-05-05 10:27:00,54.7,28.2,29.99,NNE,22,4.6,5.3,36,0.00,CLR,,0.00,WeatherDisplay:10.37,2013-05-05 14:27:00,
2013-05-05 10:32:00,55.9,29.3,30.00,NNE,22,3.5,3.5,36,0.00,CLR,,0.00,WeatherDisplay:10.37,2013-05-05 14:32:00,
2013-05-05 10:37:00,56.3,29.0,30.00,NNE,22,0.0,0.0,35,0.00,CLR,,0.00,WeatherDisplay:10.37,2013-05-05 14:37:00,
2013-05-05 10:42:00,57.9,30.4,30.00,NNE,22,7.0,7.0,35,0.00,CLR,,0.00,WeatherDisplay:10.37,2013-05-05 14:42:00,
2013-05-05 10:47:00,58.3,28.5,30.00,NNE,22,5.8,6.1,32,0.00,CLR,,0.00,WeatherDisplay:10.37,2013-05-05 14:47:00,
2013-05-05 10:52:00,58.1,29.8,30.00,NNE,22,0.0,0.0,34,0.00,CLR,,0.00,WeatherDisplay:10.37,2013-05-05 14:52:00,
2013-05-05 10:57:00,58.8,30.5,30.00,NNE,22,0.0,0.0,34,0.00,CLR,,0.00,WeatherDisplay:10.37,2013-05-05 14:57:00,
2013-05-05 11:02:00,59.5,30.4,30.00,NNE,22,3.5,4.0,33,0.00,CLR,,0.00,WeatherDisplay:10.37,2013-05-05 15:02:00,
2013-05-05 11:07:00,60.1,30.1,30.00,NNE,22,4.3,4.3,32,0.00,CLR,,0.00,WeatherDisplay:10.37,2013-05-05 15:07:00,
2013-05-05 11:12:00,61.0,30.9,30.00,NNE,22,4.6,4.8,32,0.00,CLR,,0.00,WeatherDisplay:10.37,2013-05-05 15:12:00,
2013-05-05 11:17:00,61.9,31.7,30.00,NNE,22,5.8,6.5,32,0.00,CLR,,0.00,WeatherDisplay:10.37,2013-05-05 15:17:00,
2013-05-05 11:22:00,62.8,31.7,30.00,NNE,22,4.8,4.8,31,0.00,CLR,,0.00,WeatherDisplay:10.37,2013-05-05 15:22:00,
2013-05-05 11:27:00,63.0,31.8,30.00,NNE,22,3.5,3.5,31,0.00,CLR,,0.00,WeatherDisplay:10.37,2013-05-05 15:27:00,
2013-05-05 11:32:00,63.1,30.3,30.00,NNE,22,6.9,7.3,29,0.00,CLR,,0.00,WeatherDisplay:10.37,2013-05-05 15:32:00,
2013-05-05 11:37:00,62.4,31.4,30.00,NNE,22,4.6,4.6,31,0.00,CLR,,0.00,WeatherDisplay:10.37,2013-05-05 15:37:00,
2013-05-05 11:42:00,63.1,33.5,30.00,NNE,22,0.0,0.0,33,0.00,CLR,,0.00,WeatherDisplay:10.37,2013-05-05 15:42:00,
2013-05-05 11:47:00,63.7,33.2,30.00,NNE,22,0.0,0.0,32,0.00,CLR,,0.00,WeatherDisplay:10.37,2013-05-05 15:47:00,
2013-05-05 11:52:00,64.6,34.0,30.00,NNE,22,5.8,5.8,32,0.00,CLR,,0.00,WeatherDisplay:10.37,2013-05-05 15:52:00,
2013-05-05 11:57:00,65.1,34.5,30.00,NNE,22,2.3,2.8,32,0.00,CLR,,0.00,WeatherDisplay:10.37,2013-05-05 15:57:00,
2013-05-05 12:02:00,65.1,34.5,30.00,NNE,22,4.6,4.8,32,0.00,CLR,,0.00,WeatherDisplay:10.37,2013-05-05 16:02:00,
2013-05-05 12:08:00,64.9,34.3,29.99,NNE,22,5.6,5.6,32,0.00,CLR,,0.00,WeatherDisplay:10.37,2013-05-05 16:08:00,
2013-05-05 12:13:00,64.8,35.0,29.99,NNE,22,2.3,0.0,33,0.00,CLR,,0.00,WeatherDisplay:10.37,2013-05-05 16:13:00,
2013-05-05 12:18:00,64.6,34.8,29.99,NNE,22,0.0,0.4,33,0.00,CLR,,0.00,WeatherDisplay:10.37,2013-05-05 16:18:00,
2013-05-05 12:23:00,64.6,35.6,29.99,NNE,22,2.3,2.3,34,0.00,CLR,,0.00,WeatherDisplay:10.37,2013-05-05 16:23:00,
2013-05-05 12:28:00,64.8,35.0,29.99,NNE,22,5.8,6.0,33,0.00,CLR,,0.00,WeatherDisplay:10.37,2013-05-05 16:28:00,
2013-05-05 12:33:00,64.8,35.7,29.99,NNE,22,0.0,0.0,34,0.00,CLR,,0.00,WeatherDisplay:10.37,2013-05-05 16:33:00,
2013-05-05 12:38:00,64.8,36.5,29.99,NNE,22,3.5,3.5,35,0.00,CLR,,0.00,WeatherDisplay:10.37,2013-05-05 16:38:00,
2013-05-05 12:43:00,64.9,36.6,29.99,NNE,22,2.3,0.0,35,0.00,CLR,,0.00,WeatherDisplay:10.37,2013-05-05 16:43:00,
2013-05-05 12:48:00,64.9,36.6,29.99,NNE,22,1.1,1.3,35,0.00,CLR,,0.00,WeatherDisplay:10.37,2013-05-05 16:48:00,
2013-05-05 12:53:00,64.8,37.9,29.99,NNE,22,5.8,5.8,37,0.00,CLR,,0.00,WeatherDisplay:10.37,2013-05-05 16:53:00,
2013-05-05 12:58:00,64.6,37.7,29.98,NNE,22,0.0,0.0,37,0.00,CLR,,0.00,WeatherDisplay:10.37,2013-05-05 16:58:00,
2013-05-05 13:03:00,65.1,39.5,29.99,NNE,22,5.3,5.3,39,0.00,CLR,,0.00,WeatherDisplay:10.37,2013-05-05 17:03:00,
2013-05-05 13:08:00,65.1,39.5,29.98,NNE,22,4.6,5.4,39,0.00,CLR,,0.00,WeatherDisplay:10.37,2013-05-05 17:08:00,
2013-05-05 13:13:00,64.6,39.7,29.99,NNE,22,6.9,6.9,40,0.00,CLR,,0.00,WeatherDisplay:10.37,2013-05-05 17:13:00,
2013-05-05 13:18:00,64.2,40.0,29.99,NNE,22,12.7,12.7,41,0.00,CLR,,0.00,WeatherDisplay:10.37,2013-05-05 17:18:00,
2013-05-05 13:23:00,64.2,40.6,29.99,NNE,22,3.5,3.5,42,0.00,CLR,,0.00,WeatherDisplay:10.37,2013-05-05 17:23:00,
2013-05-05 13:28:00,64.2,41.2,29.99,NNE,22,0.0,0.0,43,0.00,CLR,,0.00,WeatherDisplay:10.37,2013-05-05 17:28:00,
2013-05-05 13:33:00,64.0,40.5,29.98,NNE,22,0.0,0.0,42,0.00,CLR,,0.00,WeatherDisplay:10.37,2013-05-05 17:33:00,
2013-05-05 13:38:00,64.0,41.1,29.99,NNE,22,2.3,2.3,43,0.00,CLR,,0.00,WeatherDisplay:10.37,2013-05-05 17:38:00,
2013-05-05 13:43:00,63.7,41.3,29.99,NNE,22,6.9,7.5,44,0.00,CLR,,0.00,WeatherDisplay:10.37,2013-05-05 17:43:00,
2013-05-05 13:48:00,63.5,42.3,29.98,NNE,22,1.1,1.2,46,0.00,CLR,,0.00,WeatherDisplay:10.37,2013-05-05 17:48:00,
2013-05-05 13:53:00,63.1,43.1,29.99,NNE,22,5.8,5.8,48,0.00,CLR,,0.00,WeatherDisplay:10.37,2013-05-05 17:53:00,
2013-05-05 13:58:00,63.0,43.0,29.98,NNE,22,8.1,8.5,48,0.00,CLR,,0.00,WeatherDisplay:10.37,2013-05-05 17:58:00,
2013-05-05 14:03:00,62.6,43.2,29.99,NNE,22,0.0,1.0,49,0.00,CLR,,0.00,WeatherDisplay:10.37,2013-05-05 18:03:00,
2013-05-05 14:08:00,62.8,43.9,29.98,NNE,22,0.0,0.0,50,0.00,CLR,,0.00,WeatherDisplay:10.37,2013-05-05 18:08:00,
2013-05-05 14:13:00,63.0,43.5,29.98,NNE,22,2.3,2.8,49,0.00,CLR,,0.00,WeatherDisplay:10.37,2013-05-05 18:13:00,
2013-05-05 14:18:00,62.6,43.7,29.98,NNE,22,1.1,1.1,50,0.00,CLR,,0.00,WeatherDisplay:10.37,2013-05-05 18:18:00,
2013-05-05 14:23:00,62.8,44.4,29.98,NNE,22,4.6,4.8,51,0.00,CLR,,0.00,WeatherDisplay:10.37,2013-05-05 18:23:00,
2013-05-05 14:28:00,62.8,44.4,29.98,NNE,22,7.0,0.0,51,0.00,CLR,,0.00,WeatherDisplay:10.37,2013-05-05 18:28:00,
2013-05-05 14:33:00,62.4,44.0,29.99,NNE,22,3.5,3.5,51,0.00,CLR,,0.00,WeatherDisplay:10.37,2013-05-05 18:33:00,
2013-05-05 14:38:00,62.4,44.0,29.99,NNE,22,2.7,2.8,51,0.00,CLR,,0.00,WeatherDisplay:10.37,2013-05-05 18:38:00,
2013-05-05 14:43:00,62.1,44.2,29.99,NNE,22,2.3,2.3,52,0.00,CLR,,0.00,WeatherDisplay:10.37,2013-05-05 18:43:00,
2013-05-05 14:48:00,61.9,44.1,29.99,NNE,22,0.0,0.0,52,0.00,CLR,,0.00,WeatherDisplay:10.37,2013-05-05 18:48:00,
2013-05-05 14:53:00,61.5,44.2,29.99,NNE,22,1.1,1.1,53,0.00,CLR,,0.00,WeatherDisplay:10.37,2013-05-05 18:53:00,
2013-05-05 14:58:00,61.2,44.9,30.00,NNE,22,1.1,1.3,55,0.00,CLR,,0.00,WeatherDisplay:10.37,2013-05-05 18:58:00,
2013-05-05 15:03:00,60.6,44.8,30.00,NNE,22,5.8,6.5,56,0.00,CLR,,0.00,WeatherDisplay:10.37,2013-05-05 19:03:00,
2013-05-05 15:08:00,59.9,45.1,30.00,NNE,22,4.6,5.3,58,0.00,CLR,,0.00,WeatherDisplay:10.37,2013-05-05 19:08:00,
2013-05-05 15:13:00,59.4,45.0,30.00,NNE,22,0.0,0.1,59,0.00,CLR,,0.00,WeatherDisplay:10.37,2013-05-05 19:13:00,
2013-05-05 15:18:00,58.8,44.1,30.00,NNE,22,2.3,2.3,58,0.00,CLR,,0.00,WeatherDisplay:10.37,2013-05-05 19:18:00,
2013-05-05 15:23:00,58.8,44.5,30.00,NNE,22,0.0,0.0,59,0.00,CLR,,0.00,WeatherDisplay:10.37,2013-05-05 19:23:00,
2013-05-05 15:28:00,58.8,45.0,29.99,NNE,22,3.5,3.5,60,0.00,CLR,,0.00,WeatherDisplay:10.37,2013-05-05 19:28:00,
2013-05-05 15:33:00,58.8,45.0,30.00,NNE,22,5.8,5.8,60,0.00,CLR,,0.00,WeatherDisplay:10.37,2013-05-05 19:33:00,
2013-05-05 15:38:00,58.8,45.0,29.99,NNE,22,0.0,0.0,60,0.00,CLR,,0.00,WeatherDisplay:10.37,2013-05-05 19:38:00,
2013-05-05 15:43:00,59.5,45.6,29.99,NNE,22,1.1,1.1,60,0.00,CLR,,0.00,WeatherDisplay:10.37,2013-05-05 19:43:00,
2013-05-05 15:48:00,59.2,45.3,29.99,NNE,22,11.6,11.6,60,0.00,CLR,,0.00,WeatherDisplay:10.37,2013-05-05 19:48:00,
2013-05-05 15:53:00,58.8,45.0,29.99,NNE,22,2.4,2.5,60,0.00,CLR,,0.00,WeatherDisplay:10.37,2013-05-05 19:53:00,
2013-05-05 15:58:00,58.8,45.0,29.99,NNE,22,4.6,0.0,60,0.00,CLR,,0.00,WeatherDisplay:10.37,2013-05-05 19:58:00,
2013-05-05 16:03:00,58.8,45.8,29.99,NNE,22,10.4,10.4,62,0.00,CLR,,0.00,WeatherDisplay:10.37,2013-05-05 20:03:00,
2013-05-05 16:08:00,58.6,45.7,29.99,NNE,22,2.3,2.3,62,0.00,CLR,,0.00,WeatherDisplay:10.37,2013-05-05 20:08:00,
2013-05-05 16:13:00,58.6,45.7,29.99,NNE,22,3.5,3.5,62,0.00,CLR,,0.00,WeatherDisplay:10.37,2013-05-05 20:13:00,
2013-05-05 16:18:00,58.6,45.7,29.99,NNE,22,4.6,4.6,62,0.00,CLR,,0.00,WeatherDisplay:10.37,2013-05-05 20:18:00,
2013-05-05 16:23:00,58.6,45.7,29.98,NNE,22,2.3,2.8,62,0.00,CLR,,0.00,WeatherDisplay:10.37,2013-05-05 20:23:00,
2013-05-05 16:28:00,58.6,45.7,29.98,NNE,22,3.5,3.5,62,0.00,CLR,,0.00,WeatherDisplay:10.37,2013-05-05 20:28:00,
2013-05-05 16:33:00,58.8,45.8,29.98,NNE,22,3.5,3.5,62,0.00,CLR,,0.00,WeatherDisplay:10.37,2013-05-05 20:33:00,
2013-05-05 16:38:00,58.6,46.1,29.98,NNE,22,0.0,0.5,63,0.00,CLR,,0.00,WeatherDisplay:10.37,2013-05-05 20:38:00,
2013-05-05 16:43:00,58.8,46.2,29.98,NNE,22,3.5,3.5,63,0.00,CLR,,0.00,WeatherDisplay:10.37,2013-05-05 20:43:00,
2013-05-05 16:48:00,58.8,45.8,29.98,NNE,22,3.6,3.6,62,0.00,CLR,,0.00,WeatherDisplay:10.37,2013-05-05 20:48:00,
2013-05-05 16:53:00,58.6,46.1,29.98,NNE,22,9.2,0.0,63,0.00,CLR,,0.00,WeatherDisplay:10.37,2013-05-05 20:53:00,
2013-05-05 16:58:00,58.1,45.6,29.97,NNE,22,4.6,4.8,63,0.00,CLR,,0.00,WeatherDisplay:10.37,2013-05-05 20:58:00,
2013-05-05 17:03:00,57.9,45.4,29.98,NNE,22,3.5,3.5,63,0.00,CLR,,0.00,WeatherDisplay:10.37,2013-05-05 21:03:00,
2013-05-05 17:08:00,57.7,45.2,29.98,NNE,22,5.1,5.3,63,0.00,CLR,,0.00,WeatherDisplay:10.37,2013-05-05 21:08:00,
2013-05-05 17:13:00,57.6,45.1,29.98,NNE,22,3.5,3.5,63,0.00,CLR,,0.00,WeatherDisplay:10.37,2013-05-05 21:13:00,
2013-05-05 17:18:00,57.0,45.0,29.98,NNE,22,4.6,4.8,64,0.00,CLR,,0.00,WeatherDisplay:10.37,2013-05-05 21:18:00,
2013-05-05 17:23:00,56.8,45.2,29.98,NNE,22,8.1,8.1,65,0.00,CLR,,0.00,WeatherDisplay:10.37,2013-05-05 21:23:00,
2013-05-05 17:28:00,56.5,44.9,29.98,NNE,22,4.6,4.6,65,0.00,CLR,,0.00,WeatherDisplay:10.37,2013-05-05 21:28:00,
2013-05-05 17:33:00,56.3,45.1,29.97,NNE,22,2.3,2.3,66,0.00,CLR,,0.00,WeatherDisplay:10.37,2013-05-05 21:33:00,
2013-05-05 17:38:00,56.1,44.9,29.97,NNE,22,1.1,1.8,66,0.00,CLR,,0.00,WeatherDisplay:10.37,2013-05-05 21:38:00,
2013-05-05 17:43:00,55.9,44.7,29.97,NNE,22,2.3,2.3,66,0.00,CLR,,0.00,WeatherDisplay:10.37,2013-05-05 21:43:00,
2013-05-05 17:48:00,55.9,45.1,29.96,NNE,22,4.6,0.0,67,0.00,CLR,,0.00,WeatherDisplay:10.37,2013-05-05 21:48:00,
2013-05-05 17:53:00,55.8,44.6,29.96,NNE,22,0.0,0.0,66,0.00,CLR,,0.00,WeatherDisplay:10.37,2013-05-05 21:53:00,
2013-05-05 17:58:00,55.4,44.2,29.97,NNE,22,1.1,1.1,66,0.00,CLR,,0.00,WeatherDisplay:10.37,2013-05-05 21:58:00,
2013-05-05 18:03:00,55.2,44.4,29.96,NNE,22,4.6,0.0,67,0.00,CLR,,0.00,WeatherDisplay:10.37,2013-05-05 22:03:00,
2013-05-05 18:08:00,55.0,44.3,29.96,NNE,22,4.6,4.6,67,0.00,CLR,,0.00,WeatherDisplay:10.37,2013-05-05 22:08:00,
2013-05-05 18:13:00,55.0,44.7,29.97,NNE,22,2.3,2.3,68,0.00,CLR,,0.00,WeatherDisplay:10.37,2013-05-05 22:13:00,
2013-05-05 18:18:00,54.9,44.5,29.97,NNE,22,8.1,8.1,68,0.00,CLR,,0.00,WeatherDisplay:10.37,2013-05-05 22:18:00,
2013-05-05 18:23:00,54.9,44.5,29.97,NNE,22,1.1,1.1,68,0.00,CLR,,0.00,WeatherDisplay:10.37,2013-05-05 22:23:00,
2013-05-05 18:28:00,54.9,44.5,29.97,NNE,22,0.0,0.5,68,0.00,CLR,,0.00,WeatherDisplay:10.37,2013-05-05 22:28:00,
2013-05-05 18:33:00,54.9,44.9,29.97,NNE,22,4.6,4.6,69,0.00,CLR,,0.00,WeatherDisplay:10.37,2013-05-05 22:33:00,
2013-05-05 18:38:00,54.7,44.7,29.97,NNE,22,2.3,2.8,69,0.00,CLR,,0.00,WeatherDisplay:10.37,2013-05-05 22:38:00,
2013-05-05 18:43:00,54.5,44.5,29.97,NNE,22,2.3,0.0,69,0.00,CLR,,0.00,WeatherDisplay:10.37,2013-05-05 22:43:00,
2013-05-05 18:48:00,54.5,44.9,29.96,NNE,22,0.0,0.0,70,0.00,CLR,,0.00,WeatherDisplay:10.37,2013-05-05 22:48:00,
2013-05-05 18:53:00,54.5,44.9,29.97,NNE,22,0.0,0.0,70,0.00,CLR,,0.00,WeatherDisplay:10.37,2013-05-05 22:53:00,
2013-05-05 18:58:00,54.3,44.7,29.96,NNE,22,0.0,0.0,70,0.00,CLR,,0.00,WeatherDisplay:10.37,2013-05-05 22:58:00,
2013-05-05 19:03:00,54.1,44.6,29.96,NNE,22,0.0,0.0,70,0.00,CLR,,0.00,WeatherDisplay:10.37,2013-05-05 23:03:00,
2013-05-05 19:08:00,54.3,44.7,29.96,NNE,22,3.5,3.5,70,0.00,CLR,,0.00,WeatherDisplay:10.37,2013-05-05 23:08:00,
2013-05-05 19:13:00,54.0,44.4,29.96,NNE,22,3.5,3.5,70,0.00,CLR,,0.00,WeatherDisplay:10.37,2013-05-05 23:13:00,
2013-05-05 19:18:00,54.0,44.8,29.95,NNE,22,3.5,3.5,71,0.00,CLR,,0.00,WeatherDisplay:10.37,2013-05-05 23:18:00,
2013-05-05 19:23:00,53.8,44.6,29.95,NNE,22,2.4,2.4,71,0.00,CLR,,0.00,WeatherDisplay:10.37,2013-05-05 23:23:00,
2013-05-05 19:28:00,53.8,45.0,29.95,NNE,22,3.5,3.5,72,0.00,CLR,,0.00,WeatherDisplay:10.37,2013-05-05 23:28:00,
2013-05-05 19:33:00,53.8,44.6,29.95,NNE,22,3.5,3.5,71,0.00,CLR,,0.00,WeatherDisplay:10.37,2013-05-05 23:33:00,
2013-05-05 19:38:00,53.8,45.0,29.96,NNE,22,3.6,3.8,72,0.00,CLR,,0.00,WeatherDisplay:10.37,2013-05-05 23:38:00,
2013-05-05 19:43:00,53.4,44.6,29.96,NNE,22,0.0,0.0,72,0.00,CLR,,0.00,WeatherDisplay:10.37,2013-05-05 23:43:00,
2013-05-05 19:48:00,53.4,44.6,29.97,NNE,22,1.1,1.3,72,0.00,CLR,,0.00,WeatherDisplay:10.37,2013-05-05 23:48:00,
2013-05-05 19:53:00,53.4,45.0,29.96,NNE,22,1.1,1.5,73,0.00,CLR,,0.00,WeatherDisplay:10.37,2013-05-05 23:53:00,
2013-05-05 19:58:00,53.2,45.2,29.97,NNE,22,4.6,4.6,74,0.00,CLR,,0.00,WeatherDisplay:10.37,2013-05-05 23:58:00,
2013-05-05 20:03:00,52.9,44.8,29.98,NNE,22,3.5,0.0,74,0.00,CLR,,0.00,WeatherDisplay:10.37,2013-05-06 00:03:00,
2013-05-05 20:08:00,52.9,45.5,29.97,NNE,22,5.8,6.0,76,0.00,CLR,,0.00,WeatherDisplay:10.37,2013-05-06 00:08:00,
2013-05-05 20:13:00,52.7,45.0,29.98,NNE,22,6.5,6.5,75,0.00,CLR,,0.00,WeatherDisplay:10.37,2013-05-06 00:13:00,
2013-05-05 20:18:00,52.5,45.2,29.98,NNE,22,2.3,2.8,76,0.00,CLR,,0.00,WeatherDisplay:10.37,2013-05-06 00:18:00,
2013-05-05 20:23:00,52.3,45.0,29.98,NNE,22,0.0,0.0,76,0.00,CLR,,0.00,WeatherDisplay:10.37,2013-05-06 00:23:00,
2013-05-05 20:28:00,52.3,45.0,29.98,NNE,22,9.2,9.2,76,0.00,CLR,,0.00,WeatherDisplay:10.37,2013-05-06 00:28:00,
2013-05-05 20:33:00,52.3,45.0,29.98,NNE,22,3.9,4.0,76,0.00,CLR,,0.00,WeatherDisplay:10.37,2013-05-06 00:33:00,
2013-05-05 20:38:00,52.2,45.2,29.98,NNE,22,8.1,8.1,77,0.00,CLR,,0.00,WeatherDisplay:10.37,2013-05-06 00:38:00,
2013-05-05 20:43:00,52.0,45.0,29.98,NNE,22,4.6,4.6,77,0.00,CLR,,0.00,WeatherDisplay:10.37,2013-05-06 00:43:00,
2013-05-05 20:48:00,52.0,45.0,29.98,NNE,22,0.0,0.0,77,0.00,CLR,,0.00,WeatherDisplay:10.37,2013-05-06 00:48:00,
2013-05-05 20:53:00,51.6,44.6,29.98,NNE,22,1.2,0.0,77,0.00,CLR,,0.00,WeatherDisplay:10.37,2013-05-06 00:53:00,
2013-05-05 20:58:00,51.6,45.0,29.98,NNE,22,0.0,0.0,78,0.00,CLR,,0.00,WeatherDisplay:10.37,2013-05-06 00:58:00,
2013-05-05 21:03:00,51.4,44.8,29.97,NNE,22,0.0,0.0,78,0.00,CLR,,0.00,WeatherDisplay:10.37,2013-05-06 01:03:00,
2013-05-05 21:08:00,51.1,44.8,29.97,NNE,22,10.9,10.9,79,0.00,CLR,,0.00,WeatherDisplay:10.37,2013-05-06 01:08:00,
2013-05-05 21:13:00,51.1,44.8,29.97,NNE,22,0.0,1.1,79,0.00,CLR,,0.00,WeatherDisplay:10.37,2013-05-06 01:13:00,
2013-05-05 21:18:00,50.9,44.6,29.97,NNE,22,0.0,0.0,79,0.00,CLR,,0.00,WeatherDisplay:10.37,2013-05-06 01:18:00,
2013-05-05 21:23:00,50.7,44.4,29.97,NNE,22,4.6,4.6,79,0.00,CLR,,0.00,WeatherDisplay:10.37,2013-05-06 01:23:00,
2013-05-05 21:28:00,50.5,44.3,29.97,NNE,22,0.0,0.0,79,0.00,CLR,,0.00,WeatherDisplay:10.37,2013-05-06 01:28:00,
2013-05-05 21:33:00,50.5,44.6,29.97,NNE,22,0.0,0.0,80,0.00,CLR,,0.00,WeatherDisplay:10.37,2013-05-06 01:33:00,
2013-05-05 21:38:00,50.4,44.4,29.97,NNE,22,0.0,0.0,80,0.00,CLR,,0.00,WeatherDisplay:10.37,2013-05-06 01:38:00,
2013-05-05 21:43:00,50.4,44.4,29.97,NNE,22,0.0,0.0,80,0.00,CLR,,0.00,WeatherDisplay:10.37,2013-05-06 01:43:00,
2013-05-05 21:48:00,50.4,44.4,29.97,NNE,22,4.6,4.6,80,0.00,CLR,,0.00,WeatherDisplay:10.37,2013-05-06 01:48:00,
2013-05-05 21:53:00,50.4,44.4,29.97,NNE,22,0.0,0.0,80,0.00,CLR,,0.00,WeatherDisplay:10.37,2013-05-06 01:53:00,
2013-05-05 21:58:00,50.4,44.4,29.97,NNE,22,0.0,0.0,80,0.00,CLR,,0.00,WeatherDisplay:10.37,2013-05-06 01:58:00,
2013-05-05 22:03:00,50.4,44.4,29.98,NNE,22,0.0,0.0,80,0.00,CLR,,0.00,WeatherDisplay:10.37,2013-05-06 02:03:00,
2013-05-05 22:08:00,50.4,44.4,29.98,NNE,22,0.0,0.0,80,0.00,CLR,,0.00,WeatherDisplay:10.37,2013-05-06 02:08:00,
2013-05-05 22:13:00,50.5,44.6,29.98,NNE,22,0.0,0.0,80,0.00,CLR,,0.00,WeatherDisplay:10.37,2013-05-06 02:13:00,
2013-05-05 22:18:00,50.7,44.8,29.98,NNE,22,4.6,4.6,80,0.00,CLR,,0.00,WeatherDisplay:10.37,2013-05-06 02:18:00,
2013-05-05 22:23:00,50.7,44.8,29.98,NNE,22,0.0,0.0,80,0.00,CLR,,0.00,WeatherDisplay:10.37,2013-05-06 02:23:00,
2013-05-05 22:28:00,51.1,45.1,29.98,NNE,22,3.5,3.8,80,0.00,CLR,,0.00,WeatherDisplay:10.37,2013-05-06 02:28:00,
2013-05-05 22:33:00,51.3,45.3,29.98,NNE,22,0.0,0.0,80,0.00,CLR,,0.00,WeatherDisplay:10.37,2013-05-06 02:33:00,
2013-05-05 22:38:00,51.4,45.1,29.98,NNE,22,8.1,8.1,79,0.00,CLR,,0.00,WeatherDisplay:10.37,2013-05-06 02:38:00,
2013-05-05 22:43:00,51.4,45.1,29.98,NNE,22,2.3,2.3,79,0.00,CLR,,0.00,WeatherDisplay:10.37,2013-05-06 02:43:00,
2013-05-05 22:48:00,51.4,45.1,29.98,NNE,22,0.0,0.0,79,0.00,CLR,,0.00,WeatherDisplay:10.37,2013-05-06 02:48:00,
2013-05-05 22:53:00,51.4,45.1,29.98,NNE,22,0.0,0.0,79,0.00,CLR,,0.00,WeatherDisplay:10.37,2013-05-06 02:53:00,
2013-05-05 22:58:00,51.4,45.1,29.98,NNE,22,4.6,4.6,79,0.00,CLR,,0.00,WeatherDisplay:10.37,2013-05-06 02:58:00,
2013-05-05 23:03:00,51.4,45.1,29.97,NNE,22,1.7,1.8,79,0.00,CLR,,0.00,WeatherDisplay:10.37,2013-05-06 03:03:00,
2013-05-05 23:09:00,51.4,45.5,29.97,NNE,22,8.1,8.1,80,0.00,CLR,,0.00,WeatherDisplay:10.37,2013-05-06 03:09:00,
2013-05-05 23:14:00,51.3,45.0,29.97,NNE,22,4.6,4.6,79,0.00,CLR,,0.00,WeatherDisplay:10.37,2013-05-06 03:14:00,
2013-05-05 23:19:00,51.3,45.0,29.97,NNE,22,0.0,0.0,79,0.00,CLR,,0.00,WeatherDisplay:10.37,2013-05-06 03:19:00,
2013-05-05 23:24:00,51.3,45.0,29.96,NNE,22,7.0,7.0,79,0.00,CLR,,0.00,WeatherDisplay:10.37,2013-05-06 03:24:00,
2013-05-05 23:29:00,51.3,45.3,29.97,NNE,22,0.0,0.0,80,0.00,CLR,,0.00,WeatherDisplay:10.37,2013-05-06 03:29:00,
2013-05-05 23:34:00,51.3,45.3,29.96,NNE,22,0.0,0.0,80,0.00,CLR,,0.00,WeatherDisplay:10.37,2013-05-06 03:34:00,
2013-05-05 23:39:00,51.4,45.5,29.96,NNE,22,1.1,1.1,80,0.00,CLR,,0.00,WeatherDisplay:10.37,2013-05-06 03:39:00,
2013-05-05 23:44:00,51.4,45.5,29.95,NNE,22,0.0,0.0,80,0.00,CLR,,0.00,WeatherDisplay:10.37,2013-05-06 03:44:00,
2013-05-05 23:49:00,51.4,45.5,29.96,NNE,22,4.6,4.8,80,0.00,CLR,,0.00,WeatherDisplay:10.37,2013-05-06 03:49:00,
2013-05-05 23:54:00,51.4,45.5,29.96,NNE,22,0.0,0.0,80,0.00,CLR,,0.00,WeatherDisplay:10.37,2013-05-06 03:54:00,
2013-05-05 23:59:00,51.4,45.1,29.96,NNE,22,6.9,6.9,79,0.00,CLR,,0.00,WeatherDisplay:10.37,2013-05-06 03:59:00,